^^
Grace C. Lehan Memorial Weather Station Historical Data
Daily Summary for February 9, 2022 Units:  Both    English   Metric
Daily Weekly Monthly Yearly
  High: Low: Average:
Temperature: 98.4 °F /  36.9 °C 79 °F /  26.1 °C 87.9 °F /  31.1 °C
Dew Point: 79.8 °F /  26.6 °C 74.3 °F /  23.5 °C 76.4 °F /  24.7 °C
Humidity: 87% 50% 70%
Wind Speed: 4mph /  6.4km/h - 0.8mph /  1.3km/h
Wind Gust: 14mph /  22.5km/h - -
Wind- - West
Pressure: 29.85 in /  1010.7 hPa 29.81 in /  1009.4 hPa -
Precipitation: 0.00 in /  0 mm    
 
 
Tabular Data for February 9, 2022
Time Temperature Dew Point Pressure Wind Wind Speed Wind Gust Humidity Rainfall Rate (Hourly) solar
00:00 80 °F /  26.7 °C 74.7 °F /  23.7 °C 29.85in /  1010.7hPa Calm   1mph /  1.6km/h 84% 0.00in /  0mm 0 W/m2
00:09 79.9 °F /  26.6 °C 74.7 °F /  23.7 °C 29.85in /  1010.7hPa Calm     84% 0.00in /  0mm 0 W/m2
00:14 79.9 °F /  26.6 °C 74.9 °F /  23.8 °C 29.85in /  1010.7hPa Calm     84.7% 0.00in /  0mm 0 W/m2
00:19 79.8 °F /  26.6 °C 74.9 °F /  23.8 °C 29.85in /  1010.7hPa Calm     85% 0.00in /  0mm 0 W/m2
00:24 79.8 °F /  26.6 °C 74.9 °F /  23.8 °C 29.85in /  1010.7hPa Calm     85% 0.00in /  0mm 0 W/m2
00:29 79.8 °F /  26.6 °C 74.9 °F /  23.8 °C 29.85in /  1010.7hPa WSW 0.3mph /  0.5km/h 5mph /  8km/h 85% 0.00in /  0mm 0 W/m2
00:34 79.8 °F /  26.6 °C 74.9 °F /  23.8 °C 29.84in /  1010.4hPa Calm   5mph /  8km/h 85% 0.00in /  0mm 0 W/m2
00:39 79.8 °F /  26.6 °C 74.9 °F /  23.8 °C 29.84in /  1010.4hPa Calm   1mph /  1.6km/h 85% 0.00in /  0mm 0 W/m2
00:44 79.8 °F /  26.6 °C 74.9 °F /  23.8 °C 29.84in /  1010.4hPa SW 0.1mph /  0.2km/h 2mph /  3.2km/h 85% 0.00in /  0mm 0 W/m2
00:49 79.7 °F /  26.5 °C 74.8 °F /  23.8 °C 29.84in /  1010.4hPa SW 0.5mph /  0.8km/h 4mph /  6.4km/h 85% 0.00in /  0mm 0 W/m2
00:54 79.7 °F /  26.5 °C 74.8 °F /  23.8 °C 29.84in /  1010.4hPa SW 0.2mph /  0.3km/h 4mph /  6.4km/h 85% 0.00in /  0mm 0 W/m2
00:59 79.7 °F /  26.5 °C 74.8 °F /  23.8 °C 29.84in /  1010.4hPa Calm   4mph /  6.4km/h 85% 0.00in /  0mm 0 W/m2
01:04 79.7 °F /  26.5 °C 74.8 °F /  23.8 °C 29.84in /  1010.4hPa SW 0.2mph /  0.3km/h 4mph /  6.4km/h 85% 0.00in /  0mm 0 W/m2
01:09 79.7 °F /  26.5 °C 74.8 °F /  23.8 °C 29.84in /  1010.4hPa SW 0.2mph /  0.3km/h 3mph /  4.8km/h 85% 0.00in /  0mm 0 W/m2
01:14 79.7 °F /  26.5 °C 74.8 °F /  23.8 °C 29.84in /  1010.4hPa Calm   3mph /  4.8km/h 85% 0.00in /  0mm 0 W/m2
01:19 79.7 °F /  26.5 °C 74.8 °F /  23.8 °C 29.83in /  1010hPa SW 0.1mph /  0.2km/h 3mph /  4.8km/h 85% 0.00in /  0mm 0 W/m2
01:24 79.7 °F /  26.5 °C 74.8 °F /  23.8 °C 29.83in /  1010hPa SW 0.3mph /  0.5km/h 4mph /  6.4km/h 85% 0.00in /  0mm 0 W/m2
01:29 79.7 °F /  26.5 °C 74.8 °F /  23.8 °C 29.83in /  1010hPa Calm   4mph /  6.4km/h 85% 0.00in /  0mm 0 W/m2
01:34 79.7 °F /  26.5 °C 74.8 °F /  23.8 °C 29.83in /  1010hPa SW 0.1mph /  0.2km/h 4mph /  6.4km/h 85% 0.00in /  0mm 0 W/m2
01:39 79.6 °F /  26.4 °C 74.7 °F /  23.7 °C 29.83in /  1010hPa Calm   2mph /  3.2km/h 85% 0.00in /  0mm 0 W/m2
01:44 79.6 °F /  26.4 °C 74.7 °F /  23.7 °C 29.83in /  1010hPa Calm   2mph /  3.2km/h 85% 0.00in /  0mm 0 W/m2
01:49 79.6 °F /  26.4 °C 75 °F /  23.9 °C 29.83in /  1010hPa Calm   2mph /  3.2km/h 85.9% 0.00in /  0mm 0 W/m2
01:54 79.6 °F /  26.4 °C 75.1 °F /  23.9 °C 29.83in /  1010hPa Calm   2mph /  3.2km/h 86% 0.00in /  0mm 0 W/m2
01:59 79.6 °F /  26.4 °C 75.1 °F /  23.9 °C 29.83in /  1010hPa Calm   2mph /  3.2km/h 86% 0.00in /  0mm 0 W/m2
02:04 79.6 °F /  26.4 °C 75.1 °F /  23.9 °C 29.83in /  1010hPa Calm   2mph /  3.2km/h 86% 0.00in /  0mm 0 W/m2
02:09 79.6 °F /  26.4 °C 75.1 °F /  23.9 °C 29.83in /  1010hPa Calm   1mph /  1.6km/h 86% 0.00in /  0mm 0 W/m2
02:14 79.6 °F /  26.4 °C 75.1 °F /  23.9 °C 29.82in /  1009.7hPa Calm   1mph /  1.6km/h 86% 0.00in /  0mm 0 W/m2
02:19 79.6 °F /  26.4 °C 75.1 °F /  23.9 °C 29.82in /  1009.7hPa Calm   1mph /  1.6km/h 86% 0.00in /  0mm 0 W/m2
02:24 79.6 °F /  26.4 °C 75 °F /  23.9 °C 29.82in /  1009.7hPa WSW 0.3mph /  0.5km/h 3mph /  4.8km/h 86% 0.00in /  0mm 0 W/m2
02:29 79.5 °F /  26.4 °C 75 °F /  23.9 °C 29.82in /  1009.7hPa Calm   3mph /  4.8km/h 86% 0.00in /  0mm 0 W/m2
02:34 79.5 °F /  26.4 °C 75 °F /  23.9 °C 29.82in /  1009.7hPa Calm   3mph /  4.8km/h 86% 0.00in /  0mm 0 W/m2
02:39 79.5 °F /  26.4 °C 75 °F /  23.9 °C 29.82in /  1009.7hPa WSW 0.1mph /  0.2km/h 2mph /  3.2km/h 86% 0.00in /  0mm 0 W/m2
02:44 79.6 °F /  26.4 °C 75 °F /  23.9 °C 29.82in /  1009.7hPa Calm   2mph /  3.2km/h 86% 0.00in /  0mm 0 W/m2
02:49 79.6 °F /  26.4 °C 75.1 °F /  23.9 °C 29.82in /  1009.7hPa Calm   2mph /  3.2km/h 86% 0.00in /  0mm 0 W/m2
02:54 79.6 °F /  26.4 °C 75.1 °F /  23.9 °C 29.82in /  1009.7hPa Calm   2mph /  3.2km/h 86% 0.00in /  0mm 0 W/m2
02:59 79.6 °F /  26.4 °C 75.1 °F /  23.9 °C 29.82in /  1009.7hPa Calm   2mph /  3.2km/h 86% 0.00in /  0mm 0 W/m2
03:04 79.6 °F /  26.4 °C 75.1 °F /  23.9 °C 29.82in /  1009.7hPa Calm   2mph /  3.2km/h 86% 0.00in /  0mm 0 W/m2
03:09 79.6 °F /  26.4 °C 75.1 °F /  23.9 °C 29.82in /  1009.7hPa Calm     86% 0.00in /  0mm 0 W/m2
03:14 79.6 °F /  26.4 °C 75.1 °F /  23.9 °C 29.82in /  1009.7hPa Calm   1mph /  1.6km/h 86% 0.00in /  0mm 0 W/m2
03:19 79.6 °F /  26.4 °C 75 °F /  23.9 °C 29.82in /  1009.7hPa Calm   1mph /  1.6km/h 86% 0.00in /  0mm 0 W/m2
03:24 79.5 °F /  26.4 °C 75 °F /  23.9 °C 29.82in /  1009.7hPa WSW 0.1mph /  0.2km/h 2mph /  3.2km/h 86% 0.00in /  0mm 0 W/m2
03:29 79.5 °F /  26.4 °C 74.9 °F /  23.8 °C 29.82in /  1009.7hPa Calm   2mph /  3.2km/h 86% 0.00in /  0mm 0 W/m2
03:34 79.5 °F /  26.4 °C 74.9 °F /  23.8 °C 29.82in /  1009.7hPa Calm   2mph /  3.2km/h 86% 0.00in /  0mm 0 W/m2
03:39 79.4 °F /  26.3 °C 74.9 °F /  23.8 °C 29.82in /  1009.7hPa Calm   1mph /  1.6km/h 86% 0.00in /  0mm 0 W/m2
03:44 79.4 °F /  26.3 °C 74.8 °F /  23.8 °C 29.82in /  1009.7hPa Calm   1mph /  1.6km/h 86% 0.00in /  0mm 0 W/m2
03:49 79.4 °F /  26.3 °C 74.8 °F /  23.8 °C 29.82in /  1009.7hPa Calm   1mph /  1.6km/h 86% 0.00in /  0mm 0 W/m2
03:54 79.4 °F /  26.3 °C 74.8 °F /  23.8 °C 29.82in /  1009.7hPa WSW 0.1mph /  0.2km/h 2mph /  3.2km/h 86% 0.00in /  0mm 0 W/m2
03:59 79.4 °F /  26.3 °C 74.8 °F /  23.8 °C 29.81in /  1009.4hPa WSW 0.1mph /  0.2km/h 2mph /  3.2km/h 86% 0.00in /  0mm 0 W/m2
04:00 79.4 °F /  26.3 °C 74.8 °F /  23.8 °C 29.81in /  1009.4hPa Calm   2mph /  3.2km/h 86% 0.00in /  0mm 0 W/m2
04:09 79.4 °F /  26.3 °C 74.8 °F /  23.8 °C 29.82in /  1009.7hPa West 0.2mph /  0.3km/h 5mph /  8km/h 86% 0.00in /  0mm 0 W/m2
04:14 79.4 °F /  26.3 °C 74.8 °F /  23.8 °C 29.82in /  1009.7hPa West 0.1mph /  0.2km/h 5mph /  8km/h 86% 0.00in /  0mm 0 W/m2
04:19 79.4 °F /  26.3 °C 74.9 °F /  23.8 °C 29.82in /  1009.7hPa Calm   5mph /  8km/h 86% 0.00in /  0mm 0 W/m2
04:24 79.4 °F /  26.3 °C 74.9 °F /  23.8 °C 29.82in /  1009.7hPa Calm   5mph /  8km/h 86% 0.00in /  0mm 0 W/m2
04:29 79.4 °F /  26.3 °C 74.9 °F /  23.8 °C 29.82in /  1009.7hPa Calm   5mph /  8km/h 86% 0.00in /  0mm 0 W/m2
04:34 79.4 °F /  26.3 °C 74.8 °F /  23.8 °C 29.82in /  1009.7hPa Calm   5mph /  8km/h 86% 0.00in /  0mm 0 W/m2
04:39 79.4 °F /  26.3 °C 74.8 °F /  23.8 °C 29.82in /  1009.7hPa Calm     86% 0.00in /  0mm 0 W/m2
04:44 79.4 °F /  26.3 °C 74.8 °F /  23.8 °C 29.82in /  1009.7hPa Calm     86% 0.00in /  0mm 0 W/m2
04:49 79.3 °F /  26.3 °C 74.8 °F /  23.8 °C 29.82in /  1009.7hPa Calm     86% 0.00in /  0mm 0 W/m2
04:54 79.3 °F /  26.3 °C 74.8 °F /  23.8 °C 29.82in /  1009.7hPa Calm     86% 0.00in /  0mm 0 W/m2
04:59 79.3 °F /  26.3 °C 74.7 °F /  23.7 °C 29.82in /  1009.7hPa Calm     86% 0.00in /  0mm 0 W/m2
05:04 79.2 °F /  26.2 °C 74.7 °F /  23.7 °C 29.82in /  1009.7hPa Calm     86% 0.00in /  0mm 0 W/m2
05:09 79.2 °F /  26.2 °C 74.7 °F /  23.7 °C 29.82in /  1009.7hPa Calm     86.2% 0.00in /  0mm 0 W/m2
05:14 79.2 °F /  26.2 °C 75 °F /  23.9 °C 29.82in /  1009.7hPa Calm     87% 0.00in /  0mm 0 W/m2
05:19 79.1 °F /  26.2 °C 74.9 °F /  23.8 °C 29.82in /  1009.7hPa Calm     87% 0.00in /  0mm 0 W/m2
05:24 79.1 °F /  26.2 °C 74.9 °F /  23.8 °C 29.82in /  1009.7hPa Calm     87% 0.00in /  0mm 0 W/m2
05:29 79.1 °F /  26.2 °C 74.9 °F /  23.8 °C 29.82in /  1009.7hPa Calm     87% 0.00in /  0mm 0 W/m2
05:34 79.1 °F /  26.2 °C 74.9 °F /  23.8 °C 29.82in /  1009.7hPa Calm     87% 0.00in /  0mm 0 W/m2
05:39 79 °F /  26.1 °C 74.8 °F /  23.8 °C 29.82in /  1009.7hPa Calm     87% 0.00in /  0mm 0 W/m2
05:44 79 °F /  26.1 °C 74.8 °F /  23.8 °C 29.82in /  1009.7hPa Calm     87% 0.00in /  0mm 0 W/m2
05:49 79 °F /  26.1 °C 74.8 °F /  23.8 °C 29.82in /  1009.7hPa Calm     87% 0.00in /  0mm 0 W/m2
05:54 79 °F /  26.1 °C 74.8 °F /  23.8 °C 29.82in /  1009.7hPa Calm     87% 0.00in /  0mm 0 W/m2
05:59 79 °F /  26.1 °C 74.8 °F /  23.8 °C 29.82in /  1009.7hPa Calm     87% 0.00in /  0mm 0 W/m2
06:04 79 °F /  26.1 °C 74.8 °F /  23.8 °C 29.82in /  1009.7hPa Calm     87% 0.00in /  0mm 5 W/m2
06:09 79.1 °F /  26.2 °C 74.9 °F /  23.8 °C 29.82in /  1009.7hPa Calm     87% 0.00in /  0mm 9 W/m2
06:14 79.1 °F /  26.2 °C 74.9 °F /  23.8 °C 29.82in /  1009.7hPa Calm     87% 0.00in /  0mm 12 W/m2
06:19 79.1 °F /  26.2 °C 74.9 °F /  23.8 °C 29.82in /  1009.7hPa Calm     87% 0.00in /  0mm 12 W/m2
06:24 79.2 °F /  26.2 °C 75 °F /  23.9 °C 29.82in /  1009.7hPa Calm     87% 0.00in /  0mm 12 W/m2
06:29 79.2 °F /  26.2 °C 75 °F /  23.9 °C 29.82in /  1009.7hPa Calm     87% 0.00in /  0mm 19 W/m2
06:34 79.3 °F /  26.3 °C 75.1 °F /  23.9 °C 29.83in /  1010hPa Calm     87% 0.00in /  0mm 30 W/m2
06:39 79.3 °F /  26.3 °C 75.1 °F /  23.9 °C 29.82in /  1009.7hPa Calm     87% 0.00in /  0mm 70 W/m2
06:44 79.4 °F /  26.3 °C 75.2 °F /  24 °C 29.83in /  1010hPa Calm     87% 0.00in /  0mm 81 W/m2
06:49 79.6 °F /  26.4 °C 75.4 °F /  24.1 °C 29.83in /  1010hPa Calm     87% 0.00in /  0mm 91 W/m2
06:54 80 °F /  26.7 °C 75.7 °F /  24.3 °C 29.83in /  1010hPa Calm     86.8% 0.00in /  0mm 128 W/m2
06:59 80.6 °F /  27 °C 76 °F /  24.4 °C 29.83in /  1010hPa Calm     86% 0.00in /  0mm 162 W/m2
07:04 81 °F /  27.2 °C 76 °F /  24.4 °C 29.83in /  1010hPa Calm     84.6% 0.00in /  0mm 141 W/m2
07:09 81.4 °F /  27.4 °C 75.9 °F /  24.4 °C 29.83in /  1010hPa Calm     83.5% 0.00in /  0mm 42 W/m2
07:14 81.5 °F /  27.5 °C 75.9 °F /  24.4 °C 29.83in /  1010hPa Calm     83% 0.00in /  0mm 151 W/m2
07:19 81.7 °F /  27.6 °C 76.2 °F /  24.6 °C 29.83in /  1010hPa Calm     83.4% 0.00in /  0mm 200 W/m2
07:24 82.2 °F /  27.9 °C 76.5 °F /  24.7 °C 29.83in /  1010hPa Calm     83.1% 0.00in /  0mm 225 W/m2
07:29 82.9 °F /  28.3 °C 76.8 °F /  24.9 °C 29.83in /  1010hPa Calm     81.9% 0.00in /  0mm 248 W/m2
07:34 83.6 °F /  28.7 °C 76.9 °F /  24.9 °C 29.83in /  1010hPa Calm     80.3% 0.00in /  0mm 248 W/m2
07:39 84.3 °F /  29.1 °C 76.9 °F /  24.9 °C 29.83in /  1010hPa Calm     78.4% 0.00in /  0mm 264 W/m2
07:44 84.8 °F /  29.3 °C 77.1 °F /  25.1 °C 29.83in /  1010hPa Calm     77.7% 0.00in /  0mm 288 W/m2
07:49 85.4 °F /  29.7 °C 77.6 °F /  25.3 °C 29.83in /  1010hPa Calm     77.5% 0.00in /  0mm 292 W/m2
07:54 86 °F /  30 °C 77.8 °F /  25.4 °C 29.83in /  1010hPa West 0.1mph /  0.2km/h 2mph /  3.2km/h 76.8% 0.00in /  0mm 308 W/m2
07:59 86.5 °F /  30.3 °C 78.1 °F /  25.6 °C 29.83in /  1010hPa West 0.2mph /  0.3km/h 3mph /  4.8km/h 76% 0.00in /  0mm 320 W/m2
08:00 86.8 °F /  30.4 °C 77.9 °F /  25.5 °C 29.83in /  1010hPa Calm   3mph /  4.8km/h 75% 0.00in /  0mm 322 W/m2
08:09 87.4 °F /  30.8 °C 77.8 °F /  25.4 °C 29.83in /  1010hPa WSW 0.1mph /  0.2km/h 2mph /  3.2km/h 73.2% 0.00in /  0mm 350 W/m2
08:14 87.7 °F /  30.9 °C 78 °F /  25.6 °C 29.84in /  1010.4hPa WSW 0.3mph /  0.5km/h 3mph /  4.8km/h 73.1% 0.00in /  0mm 376 W/m2
08:19 88 °F /  31.1 °C 78 °F /  25.6 °C 29.84in /  1010.4hPa WSW 0.4mph /  0.6km/h 5mph /  8km/h 72.3% 0.00in /  0mm 394 W/m2
08:24 88.5 °F /  31.4 °C 78.4 °F /  25.8 °C 29.84in /  1010.4hPa Calm   5mph /  8km/h 72.2% 0.00in /  0mm 408 W/m2
08:29 89.1 °F /  31.7 °C 78.7 °F /  25.9 °C 29.84in /  1010.4hPa WSW 0.1mph /  0.2km/h 5mph /  8km/h 71.6% 0.00in /  0mm 427 W/m2
08:34 89.6 °F /  32 °C 78.5 °F /  25.8 °C 29.84in /  1010.4hPa West 0.6mph /  1km/h 6mph /  9.7km/h 70.1% 0.00in /  0mm 441 W/m2
08:39 89.9 °F /  32.2 °C 78.7 °F /  25.9 °C 29.83in /  1010hPa West 0.4mph /  0.6km/h 5mph /  8km/h 69.6% 0.00in /  0mm 466 W/m2
08:44 90.2 °F /  32.3 °C 78.4 °F /  25.8 °C 29.84in /  1010.4hPa West 1mph /  1.6km/h 10mph /  16.1km/h 68.4% 0.00in /  0mm 475 W/m2
08:49 90.5 °F /  32.5 °C 78.3 °F /  25.7 °C 29.84in /  1010.4hPa West 1mph /  1.6km/h 10mph /  16.1km/h 67.7% 0.00in /  0mm 503 W/m2
08:54 90.7 °F /  32.6 °C 78.1 °F /  25.6 °C 29.83in /  1010hPa West 1.9mph /  3.1km/h 10mph /  16.1km/h 66.8% 0.00in /  0mm 585 W/m2
08:59 90.7 °F /  32.6 °C 77.9 °F /  25.5 °C 29.83in /  1010hPa WSW 1.5mph /  2.4km/h 10mph /  16.1km/h 66.4% 0.00in /  0mm 594 W/m2
09:04 90.5 °F /  32.5 °C 77.6 °F /  25.3 °C 29.83in /  1010hPa West 0.7mph /  1.1km/h 10mph /  16.1km/h 66.1% 0.00in /  0mm 555 W/m2
09:09 90.4 °F /  32.4 °C 78 °F /  25.6 °C 29.83in /  1010hPa WSW 0.8mph /  1.3km/h 6mph /  9.7km/h 67.1% 0.00in /  0mm 545 W/m2
09:14 90.7 °F /  32.6 °C 78.2 °F /  25.7 °C 29.83in /  1010hPa SW 1.1mph /  1.8km/h 9mph /  14.5km/h 66.9% 0.00in /  0mm 550 W/m2
09:19 91.1 °F /  32.8 °C 78 °F /  25.6 °C 29.83in /  1010hPa SW 1.8mph /  2.9km/h 9mph /  14.5km/h 65.8% 0.00in /  0mm 570 W/m2
09:24 91.4 °F /  33 °C 78 °F /  25.6 °C 29.83in /  1010hPa WSW 1.3mph /  2.1km/h 9mph /  14.5km/h 65.1% 0.00in /  0mm 584 W/m2
09:29 91.6 °F /  33.1 °C 78.6 °F /  25.9 °C 29.84in /  1010.4hPa WSW 2mph /  3.2km/h 11mph /  17.7km/h 65.9% 0.00in /  0mm 601 W/m2
09:34 91.8 °F /  33.2 °C 78.1 °F /  25.6 °C 29.84in /  1010.4hPa WSW 1.6mph /  2.6km/h 11mph /  17.7km/h 64.3% 0.00in /  0mm 612 W/m2
09:39 92.2 °F /  33.4 °C 78.5 °F /  25.8 °C 29.84in /  1010.4hPa WSW 0.6mph /  1km/h 8mph /  12.9km/h 64.5% 0.00in /  0mm 626 W/m2
09:44 92.4 °F /  33.6 °C 78.2 °F /  25.7 °C 29.83in /  1010hPa WSW 1.3mph /  2.1km/h 8mph /  12.9km/h 63.5% 0.00in /  0mm 643 W/m2
09:49 92.7 °F /  33.7 °C 78.7 °F /  25.9 °C 29.83in /  1010hPa WSW 1.2mph /  1.9km/h 8mph /  12.9km/h 64% 0.00in /  0mm 670 W/m2
09:54 93 °F /  33.9 °C 79.1 °F /  26.2 °C 29.84in /  1010.4hPa West 1.3mph /  2.1km/h 8mph /  12.9km/h 64.1% 0.00in /  0mm 689 W/m2
09:59 93.3 °F /  34.1 °C 79.2 °F /  26.2 °C 29.83in /  1010hPa WSW 1.7mph /  2.7km/h 10mph /  16.1km/h 63.7% 0.00in /  0mm 761 W/m2
10:04 93.4 °F /  34.1 °C 78.6 °F /  25.9 °C 29.83in /  1010hPa WSW 0.7mph /  1.1km/h 10mph /  16.1km/h 62.2% 0.00in /  0mm 798 W/m2
10:09 93.4 °F /  34.1 °C 79.3 °F /  26.3 °C 29.83in /  1010hPa WSW 1.3mph /  2.1km/h 9mph /  14.5km/h 63.8% 0.00in /  0mm 802 W/m2
10:14 93.6 °F /  34.2 °C 79.8 °F /  26.6 °C 29.83in /  1010hPa WSW 0.5mph /  0.8km/h 9mph /  14.5km/h 64.4% 0.00in /  0mm 747 W/m2
10:19 94 °F /  34.4 °C 79.2 °F /  26.2 °C 29.83in /  1010hPa West 2.1mph /  3.4km/h 9mph /  14.5km/h 62.4% 0.00in /  0mm 765 W/m2
10:24 94.2 °F /  34.6 °C 79.2 °F /  26.2 °C 29.83in /  1010hPa WSW 1.5mph /  2.4km/h 9mph /  14.5km/h 62% 0.00in /  0mm 772 W/m2
10:29 94.5 °F /  34.7 °C 79.1 °F /  26.2 °C 29.84in /  1010.4hPa WNW 1.4mph /  2.3km/h 9mph /  14.5km/h 61.3% 0.00in /  0mm 863 W/m2
10:34 94.8 °F /  34.9 °C 79.1 °F /  26.2 °C 29.84in /  1010.4hPa WSW 0.6mph /  1km/h 9mph /  14.5km/h 60.8% 0.00in /  0mm 867 W/m2
10:39 95 °F /  35 °C 79 °F /  26.1 °C 29.84in /  1010.4hPa WSW 1.8mph /  2.9km/h 6mph /  9.7km/h 60.1% 0.00in /  0mm 856 W/m2
10:44 95 °F /  35 °C 78.4 °F /  25.8 °C 29.84in /  1010.4hPa SW 0.9mph /  1.4km/h 6mph /  9.7km/h 59% 0.00in /  0mm 856 W/m2
10:49 95.1 °F /  35.1 °C 78.6 °F /  25.9 °C 29.84in /  1010.4hPa SW 1mph /  1.6km/h 6mph /  9.7km/h 59% 0.00in /  0mm 828 W/m2
10:54 95.4 °F /  35.2 °C 78.4 °F /  25.8 °C 29.84in /  1010.4hPa WSW 1.6mph /  2.6km/h 6mph /  9.7km/h 58.3% 0.00in /  0mm 846 W/m2
10:59 95.5 °F /  35.3 °C 78 °F /  25.6 °C 29.83in /  1010hPa SW 1.8mph /  2.9km/h 7mph /  11.3km/h 57.4% 0.00in /  0mm 833 W/m2
11:04 95.5 °F /  35.3 °C 78 °F /  25.6 °C 29.83in /  1010hPa SSW 1.2mph /  1.9km/h 9mph /  14.5km/h 57.2% 0.00in /  0mm 896 W/m2
11:09 95.4 °F /  35.2 °C 78.4 °F /  25.8 °C 29.84in /  1010.4hPa WSW 1.2mph /  1.9km/h 9mph /  14.5km/h 58.2% 0.00in /  0mm 703 W/m2
11:14 95.5 °F /  35.3 °C 78.3 °F /  25.7 °C 29.83in /  1010hPa WSW 1.4mph /  2.3km/h 9mph /  14.5km/h 57.8% 0.00in /  0mm 656 W/m2
11:19 95.5 °F /  35.3 °C 78.5 °F /  25.8 °C 29.83in /  1010hPa West 1.2mph /  1.9km/h 10mph /  16.1km/h 58.1% 0.00in /  0mm 656 W/m2
11:24 95.5 °F /  35.3 °C 77.7 °F /  25.4 °C 29.84in /  1010.4hPa WSW 0.8mph /  1.3km/h 10mph /  16.1km/h 56.7% 0.00in /  0mm 654 W/m2
11:29 95.4 °F /  35.2 °C 78 °F /  25.6 °C 29.84in /  1010.4hPa WSW 1.4mph /  2.3km/h 10mph /  16.1km/h 57.5% 0.00in /  0mm 654 W/m2
11:34 95.5 °F /  35.3 °C 77.9 °F /  25.5 °C 29.83in /  1010hPa WSW 0.6mph /  1km/h 10mph /  16.1km/h 57.3% 0.00in /  0mm 654 W/m2
11:39 95.5 °F /  35.3 °C 78.1 °F /  25.6 °C 29.83in /  1010hPa West 1mph /  1.6km/h 9mph /  14.5km/h 57.5% 0.00in /  0mm 701 W/m2
11:44 95.6 °F /  35.3 °C 77.9 °F /  25.5 °C 29.83in /  1010hPa West 1.3mph /  2.1km/h 10mph /  16.1km/h 56.9% 0.00in /  0mm 701 W/m2
11:49 95.3 °F /  35.2 °C 77.8 °F /  25.4 °C 29.83in /  1010hPa West 0.6mph /  1km/h 10mph /  16.1km/h 57.3% 0.00in /  0mm 909 W/m2
11:54 95.2 °F /  35.1 °C 78.2 °F /  25.7 °C 29.83in /  1010hPa WSW 0.7mph /  1.1km/h 10mph /  16.1km/h 58.2% 0.00in /  0mm 909 W/m2
11:59 95.5 °F /  35.3 °C 78.1 °F /  25.6 °C 29.82in /  1009.7hPa WSW 2.3mph /  3.7km/h 10mph /  16.1km/h 57.6% 0.00in /  0mm 904 W/m2
12:00 95.6 °F /  35.3 °C 78.5 °F /  25.8 °C 29.82in /  1009.7hPa Calm   10mph /  16.1km/h 58% 0.00in /  0mm 904 W/m2
12:09 96.2 °F /  35.7 °C 78.4 °F /  25.8 °C 29.83in /  1010hPa SW 0.4mph /  0.6km/h 3mph /  4.8km/h 56.8% 0.00in /  0mm 902 W/m2
12:14 96.5 °F /  35.8 °C 78.7 °F /  25.9 °C 29.82in /  1009.7hPa WSW 1.2mph /  1.9km/h 8mph /  12.9km/h 57% 0.00in /  0mm 889 W/m2
12:19 96.7 °F /  35.9 °C 78.2 °F /  25.7 °C 29.82in /  1009.7hPa SW 1.6mph /  2.6km/h 8mph /  12.9km/h 55.5% 0.00in /  0mm 911 W/m2
12:24 96.8 °F /  36 °C 78 °F /  25.6 °C 29.83in /  1010hPa SW 0.8mph /  1.3km/h 8mph /  12.9km/h 55.1% 0.00in /  0mm 937 W/m2
12:29 96.8 °F /  36 °C 78.1 °F /  25.6 °C 29.83in /  1010hPa SW 0.7mph /  1.1km/h 8mph /  12.9km/h 55.2% 0.00in /  0mm 1005 W/m2
12:34 96.8 °F /  36 °C 78.1 °F /  25.6 °C 29.82in /  1009.7hPa WSW 0.9mph /  1.4km/h 9mph /  14.5km/h 55.3% 0.00in /  0mm 1028 W/m2
12:39 96.7 °F /  35.9 °C 78.7 °F /  25.9 °C 29.82in /  1009.7hPa WSW 0.5mph /  0.8km/h 9mph /  14.5km/h 56.4% 0.00in /  0mm 1048 W/m2
12:44 97 °F /  36.1 °C 78.9 °F /  26.1 °C 29.82in /  1009.7hPa WSW 1mph /  1.6km/h 10mph /  16.1km/h 56.5% 0.00in /  0mm 1076 W/m2
12:49 97.3 °F /  36.3 °C 78.2 °F /  25.7 °C 29.82in /  1009.7hPa SW 1.2mph /  1.9km/h 10mph /  16.1km/h 54.5% 0.00in /  0mm 1076 W/m2
12:54 97.5 °F /  36.4 °C 78.3 °F /  25.7 °C 29.82in /  1009.7hPa WSW 1.5mph /  2.4km/h 10mph /  16.1km/h 54.5% 0.00in /  0mm 1072 W/m2
12:59 97.4 °F /  36.3 °C 77.9 °F /  25.5 °C 29.82in /  1009.7hPa WNW 0.3mph /  0.5km/h 10mph /  16.1km/h 53.9% 0.00in /  0mm 399 W/m2
13:04 97 °F /  36.1 °C 77.4 °F /  25.2 °C 29.82in /  1009.7hPa West 2.2mph /  3.5km/h 12mph /  19.3km/h 53.6% 0.00in /  0mm 302 W/m2
13:09 96.2 °F /  35.7 °C 77 °F /  25 °C 29.82in /  1009.7hPa WNW 1.1mph /  1.8km/h 12mph /  19.3km/h 54.3% 0.00in /  0mm 237 W/m2
13:14 95.7 °F /  35.4 °C 77 °F /  25 °C 29.82in /  1009.7hPa West 1mph /  1.6km/h 12mph /  19.3km/h 55.2% 0.00in /  0mm 454 W/m2
13:19 95.3 °F /  35.2 °C 77.4 °F /  25.2 °C 29.82in /  1009.7hPa WSW 0.3mph /  0.5km/h 12mph /  19.3km/h 56.5% 0.00in /  0mm 454 W/m2
13:24 95.3 °F /  35.2 °C 77.2 °F /  25.1 °C 29.82in /  1009.7hPa WSW 1.1mph /  1.8km/h 12mph /  19.3km/h 56% 0.00in /  0mm 452 W/m2
13:29 95.5 °F /  35.3 °C 77 °F /  25 °C 29.82in /  1009.7hPa West 1.7mph /  2.7km/h 12mph /  19.3km/h 55.5% 0.00in /  0mm 462 W/m2
13:34 95.5 °F /  35.3 °C 77.2 °F /  25.1 °C 29.82in /  1009.7hPa West 0.9mph /  1.4km/h 12mph /  19.3km/h 55.8% 0.00in /  0mm 563 W/m2
13:39 95.5 °F /  35.3 °C 77 °F /  25 °C 29.82in /  1009.7hPa WSW 0.8mph /  1.3km/h 6mph /  9.7km/h 55.3% 0.00in /  0mm 840 W/m2
13:44 95.8 °F /  35.4 °C 77.7 °F /  25.4 °C 29.81in /  1009.4hPa West 0.8mph /  1.3km/h 6mph /  9.7km/h 56.2% 0.00in /  0mm 916 W/m2
13:49 96.2 °F /  35.7 °C 77.8 °F /  25.4 °C 29.82in /  1009.7hPa West 0.8mph /  1.3km/h 10mph /  16.1km/h 55.8% 0.00in /  0mm 904 W/m2
13:54 96.6 °F /  35.9 °C 77.6 °F /  25.3 °C 29.82in /  1009.7hPa WSW 0.4mph /  0.6km/h 10mph /  16.1km/h 54.7% 0.00in /  0mm 888 W/m2
13:59 96.8 °F /  36 °C 77.3 °F /  25.2 °C 29.82in /  1009.7hPa West 1.4mph /  2.3km/h 10mph /  16.1km/h 53.8% 0.00in /  0mm 970 W/m2
14:04 96.9 °F /  36.1 °C 77.1 °F /  25.1 °C 29.81in /  1009.4hPa SW 1.1mph /  1.8km/h 10mph /  16.1km/h 53.2% 0.00in /  0mm 997 W/m2
14:09 97.2 °F /  36.2 °C 77.4 °F /  25.2 °C 29.81in /  1009.4hPa West 1mph /  1.6km/h 9mph /  14.5km/h 53.5% 0.00in /  0mm 979 W/m2
14:14 97.6 °F /  36.4 °C 76.9 °F /  24.9 °C 29.81in /  1009.4hPa West 1.8mph /  2.9km/h 10mph /  16.1km/h 51.7% 0.00in /  0mm 884 W/m2
14:19 98 °F /  36.7 °C 77.2 °F /  25.1 °C 29.81in /  1009.4hPa SW 1.1mph /  1.8km/h 10mph /  16.1km/h 51.7% 0.00in /  0mm 879 W/m2
14:24 98.3 °F /  36.8 °C 77 °F /  25 °C 29.81in /  1009.4hPa West 3.1mph /  5km/h 11mph /  17.7km/h 50.9% 0.00in /  0mm 937 W/m2
14:29 98.3 °F /  36.8 °C 76.7 °F /  24.8 °C 29.81in /  1009.4hPa WSW 2mph /  3.2km/h 11mph /  17.7km/h 50.3% 0.00in /  0mm 937 W/m2
14:34 98.3 °F /  36.8 °C 77.2 °F /  25.1 °C 29.82in /  1009.7hPa WSW 1.1mph /  1.8km/h 11mph /  17.7km/h 51.2% 0.00in /  0mm 933 W/m2
14:39 98.2 °F /  36.8 °C 76.4 °F /  24.7 °C 29.81in /  1009.4hPa WSW 2.9mph /  4.7km/h 12mph /  19.3km/h 50% 0.00in /  0mm 244 W/m2
14:44 97.9 °F /  36.6 °C 77 °F /  25 °C 29.81in /  1009.4hPa WSW 1.1mph /  1.8km/h 12mph /  19.3km/h 51.6% 0.00in /  0mm 896 W/m2
14:49 97.9 °F /  36.6 °C 77.1 °F /  25.1 °C 29.81in /  1009.4hPa WSW 1.6mph /  2.6km/h 12mph /  19.3km/h 51.8% 0.00in /  0mm 865 W/m2
14:54 98 °F /  36.7 °C 76.9 °F /  24.9 °C 29.81in /  1009.4hPa West 1.5mph /  2.4km/h 12mph /  19.3km/h 51.2% 0.00in /  0mm 844 W/m2
14:59 98.2 °F /  36.8 °C 77 °F /  25 °C 29.81in /  1009.4hPa WSW 1.2mph /  1.9km/h 12mph /  19.3km/h 51% 0.00in /  0mm 874 W/m2
15:04 98.4 °F /  36.9 °C 77 °F /  25 °C 29.81in /  1009.4hPa SW 1.8mph /  2.9km/h 12mph /  19.3km/h 50.8% 0.00in /  0mm 916 W/m2
15:09 98.2 °F /  36.8 °C 76.4 °F /  24.7 °C 29.81in /  1009.4hPa SW 0.5mph /  0.8km/h 12mph /  19.3km/h 50.1% 0.00in /  0mm 499 W/m2
15:14 97.8 °F /  36.6 °C 76.3 °F /  24.6 °C 29.81in /  1009.4hPa SW 0.9mph /  1.4km/h 12mph /  19.3km/h 50.5% 0.00in /  0mm 232 W/m2
15:19 97.2 °F /  36.2 °C 75.8 °F /  24.3 °C 29.81in /  1009.4hPa WSW 2mph /  3.2km/h 12mph /  19.3km/h 50.6% 0.00in /  0mm 172 W/m2
15:24 96.5 °F /  35.8 °C 75.7 °F /  24.3 °C 29.82in /  1009.7hPa WNW 2.9mph /  4.7km/h 12mph /  19.3km/h 51.4% 0.00in /  0mm 237 W/m2
15:29 95.5 °F /  35.3 °C 76.4 °F /  24.7 °C 29.83in /  1010hPa WNW 3.5mph /  5.6km/h 12mph /  19.3km/h 54.2% 0.00in /  0mm 262 W/m2
15:34 94.1 °F /  34.5 °C 76.3 °F /  24.6 °C 29.83in /  1010hPa WNW 2.2mph /  3.5km/h 12mph /  19.3km/h 56.5% 0.00in /  0mm 262 W/m2
15:39 92.8 °F /  33.8 °C 76.1 °F /  24.5 °C 29.82in /  1009.7hPa NW 3.1mph /  5km/h 11mph /  17.7km/h 58.4% 0.00in /  0mm 258 W/m2
15:44 91.7 °F /  33.2 °C 76.1 °F /  24.5 °C 29.82in /  1009.7hPa NW 2.5mph /  4km/h 11mph /  17.7km/h 60.5% 0.00in /  0mm 251 W/m2
15:49 91.1 °F /  32.8 °C 76.3 °F /  24.6 °C 29.82in /  1009.7hPa NW 1.2mph /  1.9km/h 11mph /  17.7km/h 62.1% 0.00in /  0mm 448 W/m2
15:54 90.9 °F /  32.7 °C 76.2 °F /  24.6 °C 29.82in /  1009.7hPa WNW 4mph /  6.4km/h 13mph /  20.9km/h 62.2% 0.00in /  0mm 628 W/m2
15:59 90.8 °F /  32.7 °C 76.4 °F /  24.7 °C 29.82in /  1009.7hPa NW 3.7mph /  6km/h 13mph /  20.9km/h 62.8% 0.00in /  0mm 628 W/m2
16:00 90.8 °F /  32.7 °C 76.5 °F /  24.7 °C 29.82in /  1009.7hPa NW 3mph /  4.8km/h 13mph /  20.9km/h 63% 0.00in /  0mm 348 W/m2
16:09 91.1 °F /  32.8 °C 76.9 °F /  24.9 °C 29.82in /  1009.7hPa WNW 2mph /  3.2km/h 9mph /  14.5km/h 63.4% 0.00in /  0mm 779 W/m2
16:14 91.4 °F /  33 °C 76.7 °F /  24.8 °C 29.82in /  1009.7hPa NW 3.4mph /  5.5km/h 11mph /  17.7km/h 62.2% 0.00in /  0mm 677 W/m2
16:19 91.6 °F /  33.1 °C 76.6 °F /  24.8 °C 29.82in /  1009.7hPa WNW 1.5mph /  2.4km/h 11mph /  17.7km/h 61.7% 0.00in /  0mm 114 W/m2
16:24 91.8 °F /  33.2 °C 76.8 °F /  24.9 °C 29.82in /  1009.7hPa WNW 2.3mph /  3.7km/h 11mph /  17.7km/h 61.8% 0.00in /  0mm 91 W/m2
16:29 92 °F /  33.3 °C 76.3 °F /  24.6 °C 29.82in /  1009.7hPa WSW 1.5mph /  2.4km/h 11mph /  17.7km/h 60.5% 0.00in /  0mm 162 W/m2
16:34 92.1 °F /  33.4 °C 76.7 °F /  24.8 °C 29.82in /  1009.7hPa WNW 0.8mph /  1.3km/h 11mph /  17.7km/h 61% 0.00in /  0mm 162 W/m2
16:39 92.1 °F /  33.4 °C 76.5 °F /  24.7 °C 29.82in /  1009.7hPa WNW 1mph /  1.6km/h 5mph /  8km/h 60.6% 0.00in /  0mm 241 W/m2
16:44 92 °F /  33.3 °C 76.9 °F /  24.9 °C 29.82in /  1009.7hPa WNW 0.1mph /  0.2km/h 5mph /  8km/h 61.4% 0.00in /  0mm 213 W/m2
16:49 92.2 °F /  33.4 °C 76.8 °F /  24.9 °C 29.82in /  1009.7hPa WNW 0.3mph /  0.5km/h 5mph /  8km/h 61% 0.00in /  0mm 120 W/m2
16:54 92.5 °F /  33.6 °C 77 °F /  25 °C 29.82in /  1009.7hPa WNW 0.6mph /  1km/h 5mph /  8km/h 60.9% 0.00in /  0mm 100 W/m2
16:59 92.7 °F /  33.7 °C 76.5 °F /  24.7 °C 29.82in /  1009.7hPa WNW 2.3mph /  3.7km/h 11mph /  17.7km/h 59.3% 0.00in /  0mm 120 W/m2
17:04 92.7 °F /  33.7 °C 76.4 °F /  24.7 °C 29.82in /  1009.7hPa WNW 2mph /  3.2km/h 11mph /  17.7km/h 59.3% 0.00in /  0mm 111 W/m2
17:09 92.7 °F /  33.7 °C 76.5 °F /  24.7 °C 29.82in /  1009.7hPa NW 1.1mph /  1.8km/h 7mph /  11.3km/h 59.5% 0.00in /  0mm 88 W/m2
17:14 92.5 °F /  33.6 °C 76.2 °F /  24.6 °C 29.82in /  1009.7hPa WNW 2.7mph /  4.3km/h 11mph /  17.7km/h 59.2% 0.00in /  0mm 105 W/m2
17:19 92.4 °F /  33.6 °C 76.3 °F /  24.6 °C 29.82in /  1009.7hPa WNW 1.6mph /  2.6km/h 11mph /  17.7km/h 59.6% 0.00in /  0mm 105 W/m2
17:24 92.4 °F /  33.6 °C 76.4 °F /  24.7 °C 29.82in /  1009.7hPa WNW 2.6mph /  4.2km/h 11mph /  17.7km/h 59.8% 0.00in /  0mm 72 W/m2
17:29 92.3 °F /  33.5 °C 76.4 °F /  24.7 °C 29.82in /  1009.7hPa WNW 2.1mph /  3.4km/h 11mph /  17.7km/h 60% 0.00in /  0mm 76 W/m2
17:34 92.2 °F /  33.4 °C 76.3 °F /  24.6 °C 29.82in /  1009.7hPa NW 0.7mph /  1.1km/h 11mph /  17.7km/h 60.1% 0.00in /  0mm 63 W/m2
17:39 92 °F /  33.3 °C 76.4 °F /  24.7 °C 29.82in /  1009.7hPa WNW 1mph /  1.6km/h 6mph /  9.7km/h 60.6% 0.00in /  0mm 51 W/m2
17:44 91.8 °F /  33.2 °C 75.9 °F /  24.4 °C 29.82in /  1009.7hPa WNW 1.5mph /  2.4km/h 6mph /  9.7km/h 60% 0.00in /  0mm 37 W/m2
17:49 91.5 °F /  33.1 °C 75.7 °F /  24.3 °C 29.82in /  1009.7hPa WNW 0.7mph /  1.1km/h 6mph /  9.7km/h 60% 0.00in /  0mm 53 W/m2
17:54 91.2 °F /  32.9 °C 75.7 °F /  24.3 °C 29.82in /  1009.7hPa WNW 0.3mph /  0.5km/h 6mph /  9.7km/h 60.7% 0.00in /  0mm 84 W/m2
17:59 91 °F /  32.8 °C 76 °F /  24.4 °C 29.82in /  1009.7hPa WNW 0.2mph /  0.3km/h 6mph /  9.7km/h 61.6% 0.00in /  0mm 83 W/m2
18:04 91.1 °F /  32.8 °C 76.1 °F /  24.5 °C 29.82in /  1009.7hPa WNW 1.3mph /  2.1km/h 7mph /  11.3km/h 61.7% 0.00in /  0mm 72 W/m2
18:09 91.1 °F /  32.8 °C 75.8 °F /  24.3 °C 29.82in /  1009.7hPa West 0.9mph /  1.4km/h 7mph /  11.3km/h 61% 0.00in /  0mm 69 W/m2
18:14 91.2 °F /  32.9 °C 75.6 °F /  24.2 °C 29.83in /  1010hPa WNW 2.6mph /  4.2km/h 11mph /  17.7km/h 60.4% 0.00in /  0mm 53 W/m2
18:19 91.3 °F /  32.9 °C 75.4 °F /  24.1 °C 29.83in /  1010hPa West 1.3mph /  2.1km/h 11mph /  17.7km/h 59.8% 0.00in /  0mm 58 W/m2
18:24 91.3 °F /  32.9 °C 75.5 °F /  24.2 °C 29.83in /  1010hPa West 1.8mph /  2.9km/h 11mph /  17.7km/h 60% 0.00in /  0mm 56 W/m2
18:29 91.3 °F /  32.9 °C 74.8 °F /  23.8 °C 29.83in /  1010hPa WNW 1.7mph /  2.7km/h 11mph /  17.7km/h 58.7% 0.00in /  0mm 54 W/m2
18:34 91.2 °F /  32.9 °C 74.6 °F /  23.7 °C 29.84in /  1010.4hPa WNW 2.5mph /  4km/h 14mph /  22.5km/h 58.3% 0.00in /  0mm 62 W/m2
18:39 91.1 °F /  32.8 °C 74.3 °F /  23.5 °C 29.84in /  1010.4hPa West 2.3mph /  3.7km/h 14mph /  22.5km/h 58% 0.00in /  0mm 74 W/m2
18:44 91.1 °F /  32.8 °C 74.7 °F /  23.7 °C 29.84in /  1010.4hPa West 2.5mph /  4km/h 14mph /  22.5km/h 58.8% 0.00in /  0mm 74 W/m2
18:49 90.9 °F /  32.7 °C 74.8 °F /  23.8 °C 29.84in /  1010.4hPa WNW 0.4mph /  0.6km/h 14mph /  22.5km/h 59.4% 0.00in /  0mm 53 W/m2
18:54 90.8 °F /  32.7 °C 75.2 °F /  24 °C 29.84in /  1010.4hPa WNW 1.6mph /  2.6km/h 14mph /  22.5km/h 60.3% 0.00in /  0mm 53 W/m2
18:59 90.6 °F /  32.6 °C 75.1 °F /  23.9 °C 29.84in /  1010.4hPa NW 1.5mph /  2.4km/h 14mph /  22.5km/h 60.5% 0.00in /  0mm 46 W/m2
19:04 90.4 °F /  32.4 °C 74.9 °F /  23.8 °C 29.85in /  1010.7hPa NNW 0.9mph /  1.4km/h 14mph /  22.5km/h 60.7% 0.00in /  0mm 26 W/m2
Hartford County Weather
Compliments of Weather Underground - 2 mb